Time,TemperatureF,DewpointF,PressureIn,WindDirection,WindDirectionDegrees,WindSpeedMPH,WindSpeedGustMPH,Humidity,HourlyPrecipIn,Conditions,Clouds,dailyrainin,SoftwareType,DateUTC
2013-07-31 00:22:00,76.0,70.0,30.16,SW,230,6.0,6.0,81,-99.99,,,-99.99,,2013-07-31 04:22:00,
2013-07-31 01:00:00,75.0,66.0,30.17,WSW,240,6.0,7.0,72,-99.99,,,-99.99,,2013-07-31 05:00:00,
2013-07-31 01:21:00,75.0,66.0,30.17,WSW,240,6.0,7.0,72,-99.99,,,-99.99,,2013-07-31 05:21:00,
2013-07-31 01:32:00,75.0,66.0,30.17,WSW,240,6.0,7.0,72,-99.99,,,-99.99,,2013-07-31 05:32:00,
2013-07-31 01:42:00,75.0,66.0,30.17,WSW,240,6.0,7.0,72,-99.99,,,-99.99,,2013-07-31 05:42:00,
2013-07-31 01:51:00,75.0,66.0,30.17,WSW,240,6.0,7.0,72,-99.99,,,-99.99,,2013-07-31 05:51:00,
2013-07-31 02:32:00,74.0,67.0,30.17,SW,220,12.0,12.0,80,-99.99,,,-99.99,,2013-07-31 06:32:00,
2013-07-31 02:42:00,74.0,67.0,30.17,SW,220,12.0,12.0,80,-99.99,,,-99.99,,2013-07-31 06:42:00,
2013-07-31 02:52:00,74.0,67.0,30.17,SW,220,12.0,12.0,80,-99.99,,,-99.99,,2013-07-31 06:52:00,
2013-07-31 03:00:00,74.0,69.0,30.16,WSW,240,10.0,12.0,85,-99.99,,,-99.99,,2013-07-31 07:00:00,
2013-07-31 03:22:00,74.0,69.0,30.16,WSW,240,10.0,12.0,85,-99.99,,,-99.99,,2013-07-31 07:22:00,
2013-07-31 04:00:00,74.0,69.0,30.16,SW,220,9.0,10.0,83,-99.99,,,-99.99,,2013-07-31 08:00:00,
2013-07-31 04:32:00,74.0,69.0,30.16,SW,220,9.0,10.0,83,-99.99,,,-99.99,,2013-07-31 08:32:00,
2013-07-31 04:42:00,74.0,69.0,30.16,SW,220,9.0,10.0,83,-99.99,,,-99.99,,2013-07-31 08:42:00,
2013-07-31 04:53:00,74.0,69.0,30.16,SW,220,9.0,10.0,83,-99.99,,,-99.99,,2013-07-31 08:53:00,
2013-07-31 05:00:00,73.0,70.0,30.16,WSW,250,5.0,6.0,89,-99.99,,,-99.99,,2013-07-31 09:00:00,
2013-07-31 05:32:00,73.0,70.0,30.16,WSW,250,5.0,6.0,89,-99.99,,,-99.99,,2013-07-31 09:32:00,
2013-07-31 05:43:00,73.0,70.0,30.16,WSW,250,5.0,6.0,89,-99.99,,,-99.99,,2013-07-31 09:43:00,
2013-07-31 05:52:00,73.0,70.0,30.16,WSW,250,5.0,6.0,89,-99.99,,,-99.99,,2013-07-31 09:52:00,
2013-07-31 08:00:00,73.0,72.0,30.17,WSW,240,2.0,5.0,97,-99.99,,,-99.99,,2013-07-31 12:00:00,
2013-07-31 08:43:00,73.0,72.0,30.17,WSW,240,2.0,5.0,97,-99.99,,,-99.99,,2013-07-31 12:43:00,
2013-07-31 08:52:00,73.0,72.0,30.17,WSW,240,2.0,5.0,97,-99.99,,,-99.99,,2013-07-31 12:52:00,
2013-07-31 09:00:00,73.0,71.0,30.17,SW,230,2.0,3.0,92,-99.99,,,-99.99,,2013-07-31 13:00:00,
2013-07-31 09:33:00,73.0,71.0,30.17,SW,230,2.0,3.0,92,-99.99,,,-99.99,,2013-07-31 13:33:00,
2013-07-31 09:43:00,73.0,71.0,30.17,SW,230,2.0,3.0,92,-99.99,,,-99.99,,2013-07-31 13:43:00,
2013-07-31 09:53:00,73.0,71.0,30.17,SW,230,2.0,3.0,92,-99.99,,,-99.99,,2013-07-31 13:53:00,
2013-07-31 10:43:00,74.0,72.0,30.17,SSW,200,2.0,3.0,92,-99.99,,,-99.99,,2013-07-31 14:43:00,
2013-07-31 10:53:00,74.0,72.0,30.17,SSW,200,2.0,3.0,92,-99.99,,,-99.99,,2013-07-31 14:53:00,
2013-07-31 11:00:00,75.0,72.0,30.16,SSE,150,5.0,6.0,90,-99.99,,,-99.99,,2013-07-31 15:00:00,
2013-07-31 11:33:00,75.0,72.0,30.16,SSE,150,5.0,6.0,90,-99.99,,,-99.99,,2013-07-31 15:33:00,
2013-07-31 11:43:00,75.0,72.0,30.16,SSE,150,5.0,6.0,90,-99.99,,,-99.99,,2013-07-31 15:43:00,
2013-07-31 11:52:00,75.0,72.0,30.16,SSE,150,5.0,6.0,90,-99.99,,,-99.99,,2013-07-31 15:52:00,
2013-07-31 12:00:00,76.0,72.0,30.15,South,170,8.0,10.0,87,-99.99,,,-99.99,,2013-07-31 16:00:00,
2013-07-31 12:33:00,76.0,72.0,30.15,South,170,8.0,10.0,87,-99.99,,,-99.99,,2013-07-31 16:33:00,
2013-07-31 12:43:00,76.0,72.0,30.15,South,170,8.0,10.0,87,-99.99,,,-99.99,,2013-07-31 16:43:00,
2013-07-31 12:52:00,76.0,72.0,30.15,South,170,8.0,10.0,87,-99.99,,,-99.99,,2013-07-31 16:52:00,
2013-07-31 13:00:00,77.0,71.0,30.14,SSE,160,13.0,14.0,82,-99.99,,,-99.99,,2013-07-31 17:00:00,
2013-07-31 13:33:00,77.0,71.0,30.14,SSE,160,13.0,14.0,82,-99.99,,,-99.99,,2013-07-31 17:33:00,
2013-07-31 13:43:00,77.0,71.0,30.14,SSE,160,13.0,14.0,82,-99.99,,,-99.99,,2013-07-31 17:43:00,
2013-07-31 13:53:00,77.0,71.0,30.14,SSE,160,13.0,14.0,82,-99.99,,,-99.99,,2013-07-31 17:53:00,
2013-07-31 14:00:00,78.0,71.0,30.12,South,170,13.0,14.0,80,-99.99,,,-99.99,,2013-07-31 18:00:00,
2013-07-31 14:22:00,78.0,71.0,30.12,South,170,13.0,14.0,80,-99.99,,,-99.99,,2013-07-31 18:22:00,
2013-07-31 14:32:00,78.0,71.0,30.12,South,170,13.0,14.0,80,-99.99,,,-99.99,,2013-07-31 18:32:00,
2013-07-31 14:43:00,78.0,71.0,30.12,South,170,13.0,14.0,80,-99.99,,,-99.99,,2013-07-31 18:43:00,
2013-07-31 14:52:00,78.0,71.0,30.12,South,170,13.0,14.0,80,-99.99,,,-99.99,,2013-07-31 18:52:00,
2013-07-31 15:00:00,77.0,73.0,30.11,South,180,13.0,14.0,86,-99.99,,,-99.99,,2013-07-31 19:00:00,
2013-07-31 15:32:00,77.0,73.0,30.11,South,180,13.0,14.0,86,-99.99,,,-99.99,,2013-07-31 19:32:00,
2013-07-31 15:43:00,77.0,73.0,30.11,South,180,13.0,14.0,86,-99.99,,,-99.99,,2013-07-31 19:43:00,
2013-07-31 15:52:00,77.0,73.0,30.11,South,180,13.0,14.0,86,-99.99,,,-99.99,,2013-07-31 19:52:00,
2013-07-31 17:00:00,78.0,70.0,30.08,South,170,17.0,18.0,77,-99.99,,,-99.99,,2013-07-31 21:00:00,
2013-07-31 17:21:00,78.0,70.0,30.08,South,170,17.0,18.0,77,-99.99,,,-99.99,,2013-07-31 21:21:00,
2013-07-31 17:32:00,78.0,70.0,30.08,South,170,17.0,18.0,77,-99.99,,,-99.99,,2013-07-31 21:32:00,
2013-07-31 17:42:00,78.0,70.0,30.08,South,170,17.0,18.0,77,-99.99,,,-99.99,,2013-07-31 21:42:00,
2013-07-31 17:53:00,78.0,70.0,30.08,South,170,17.0,18.0,77,-99.99,,,-99.99,,2013-07-31 21:53:00,
2013-07-31 18:00:00,78.0,69.0,30.07,South,180,18.0,21.0,72,-99.99,,,-99.99,,2013-07-31 22:00:00,
2013-07-31 18:32:00,78.0,69.0,30.07,South,180,18.0,21.0,72,-99.99,,,-99.99,,2013-07-31 22:32:00,
2013-07-31 18:42:00,78.0,69.0,30.07,South,180,18.0,21.0,72,-99.99,,,-99.99,,2013-07-31 22:42:00,
2013-07-31 18:52:00,78.0,69.0,30.07,South,180,18.0,21.0,72,-99.99,,,-99.99,,2013-07-31 22:52:00,
2013-07-31 19:00:00,78.0,71.0,30.05,South,170,21.0,23.0,78,-99.99,,,-99.99,,2013-07-31 23:00:00,
2013-07-31 19:21:00,78.0,71.0,30.05,South,170,21.0,23.0,78,-99.99,,,-99.99,,2013-07-31 23:21:00,
2013-07-31 19:42:00,78.0,71.0,30.05,South,170,21.0,23.0,78,-99.99,,,-99.99,,2013-07-31 23:42:00,
2013-07-31 19:52:00,78.0,71.0,30.05,South,170,21.0,23.0,78,-99.99,,,-99.99,,2013-07-31 23:52:00,